Location: Mauries
(43.6188°N, 0.3322°W)
Time: 04:58:14
(UTC+00:00)

Cosmos 1500 Rocket - Pass Details

Date: 14 January 2026
Orbit: 597 x 623 km, 82.5° (Epoch: 14 February)

Event Time Altitude Azimuth Distance (km) Brightness Sun altitude
Rises 05:56:02 0° 194° (SSW) 2,844 7.0 -17.0°
Reaches altitude 10° 05:58:14 10° 197° (SSW) 1,950 6.1 -16.6°
Maximum altitude 06:02:31 65° 280° (W) 674 3.4 -15.9°
Drops below altitude 10° 06:06:53 10° 3° (N) 1,982 6.0 -15.1°
Sets 06:09:09 0° 6° (N) 2,896 6.9 -14.7°
